• In Kazakhstan
  • List of Countries
  • For 7 days
  • Water Temperature
  • Satellite Maps
  • Weather Map
  • News
  • Weather Widgets
  • user-avatar
    Login

    Hourly Weather Armawir

    Today, 26 June, Wednesday

    Time Temperature Precipitation Wind Pressure Humidity
    00:00 +25°C° 0.5 mm 2 mps 689 mmHg 62%
    01:00 +24°C° 0 mm 2 mps 689 mmHg 63%
    02:00 +24°C° 0 mm 2 mps 689 mmHg 63%
    03:00 +23°C° 0 mm 2 mps 689 mmHg 63%
    04:00 +24°C° 0 mm 2 mps 689 mmHg 61%
    05:00 +25°C° 0 mm 2 mps 689 mmHg 59%
    06:00 +25°C° 0 mm 2 mps 689 mmHg 57%
    07:00 +27°C° 0 mm 2 mps 689 mmHg 51%
    08:00 +29°C° 0 mm 2 mps 690 mmHg 45%
    09:00 +31°C° 0 mm 2 mps 690 mmHg 39%
    10:00 +32°C° 0 mm 2 mps 690 mmHg 36%
    11:00 +34°C° 0 mm 1 mps 690 mmHg 33%
    12:00 +35°C° 0 mm 1 mps 690 mmHg 30%
    13:00 +36°C° 0 mm 1 mps 689 mmHg 28%
    14:00 +36°C° 0 mm 1 mps 689 mmHg 26%
    15:00 +37°C° 0 mm 1 mps 689 mmHg 24%
    16:00 +37°C° 0.1 mm 2 mps 688 mmHg 29%
    17:00 +35°C° 0.1 mm 2 mps 688 mmHg 34%
    18:00 +34°C° 0.1 mm 3 mps 688 mmHg 40%
    19:00 +31°C° 0.1 mm 3 mps 688 mmHg 44%
    20:00 +29°C° 0.1 mm 2 mps 688 mmHg 49%
    21:00 +27°C° 0.1 mm 2 mps 688 mmHg 53%
    22:00 +26°C° 0.4 mm 2 mps 688 mmHg 56%
    23:00 +26°C° 0.4 mm 2 mps 688 mmHg 60%

    Tomorrow, 27 June, Thursday

    Time Temperature Precipitation Wind Pressure Humidity
    00:00 +25°C° 0.4 mm 2 mps 687 mmHg 63%
    01:00 +24°C° 0.3 mm 2 mps 687 mmHg 65%
    02:00 +24°C° 0.3 mm 2 mps 687 mmHg 66%
    03:00 +23°C° 0.3 mm 1 mps 687 mmHg 68%
    04:00 +24°C° 0.1 mm 1 mps 687 mmHg 66%
    05:00 +24°C° 0.1 mm 1 mps 687 mmHg 64%
    06:00 +25°C° 0.1 mm 1 mps 687 mmHg 61%
    07:00 +26°C° 0 mm 2 mps 687 mmHg 55%
    08:00 +28°C° 0 mm 2 mps 687 mmHg 49%
    09:00 +30°C° 0 mm 2 mps 687 mmHg 43%
    10:00 +31°C° 0.1 mm 2 mps 687 mmHg 40%
    11:00 +32°C° 0.1 mm 1 mps 686 mmHg 36%
    12:00 +34°C° 0.1 mm 1 mps 686 mmHg 33%
    13:00 +34°C° 0 mm 1 mps 686 mmHg 31%
    14:00 +35°C° 0 mm 1 mps 686 mmHg 29%
    15:00 +36°C° 0 mm 1 mps 685 mmHg 27%
    16:00 +35°C° 0.2 mm 2 mps 685 mmHg 34%
    17:00 +31°C° 0.2 mm 3 mps 685 mmHg 41%
    18:00 +29°C° 0.2 mm 4 mps 684 mmHg 48%
    19:00 +28°C° 0.1 mm 3 mps 684 mmHg 51%
    20:00 +27°C° 0.1 mm 2 mps 685 mmHg 53%
    21:00 +26°C° 0.1 mm 1 mps 685 mmHg 56%
    22:00 +26°C° 0.1 mm 1 mps 685 mmHg 58%
    23:00 +25°C° 0.1 mm 1 mps 684 mmHg 60%

    Day after tomorrow, 28 June, Friday

    Time Temperature Precipitation Wind Pressure Humidity
    00:00 +25°C° 0.1 mm 1 mps 684 mmHg 63%
    01:00 +24°C° 0.1 mm 1 mps 684 mmHg 63%
    02:00 +24°C° 0.1 mm 2 mps 684 mmHg 64%
    03:00 +24°C° 0.1 mm 2 mps 683 mmHg 64%
    04:00 +24°C° 0.1 mm 1 mps 683 mmHg 64%
    05:00 +24°C° 0.1 mm 1 mps 683 mmHg 64%
    06:00 +24°C° 0.1 mm 1 mps 683 mmHg 64%
    07:00 +26°C° 0.1 mm 1 mps 683 mmHg 59%
    08:00 +27°C° 0.1 mm 2 mps 683 mmHg 54%
    09:00 +28°C° 0.1 mm 2 mps 682 mmHg 48%
    10:00 +30°C° 0.1 mm 2 mps 682 mmHg 44%
    11:00 +31°C° 0.1 mm 2 mps 682 mmHg 40%
    12:00 +32°C° 0.1 mm 2 mps 682 mmHg 35%
    13:00 +34°C° 0.1 mm 2 mps 681 mmHg 34%
    14:00 +35°C° 0.1 mm 2 mps 681 mmHg 32%
    15:00 +35°C° 0.1 mm 3 mps 681 mmHg 30%
    16:00 +31°C° 1 mm 3 mps 680 mmHg 42%
    17:00 +28°C° 1 mm 3 mps 680 mmHg 53%
    18:00 +25°C° 1 mm 4 mps 680 mmHg 65%
    19:00 +24°C° 0.3 mm 3 mps 680 mmHg 68%
    20:00 +24°C° 0.3 mm 2 mps 681 mmHg 71%
    21:00 +23°C° 0.3 mm 2 mps 681 mmHg 73%
    22:00 +23°C° 0 mm 2 mps 681 mmHg 74%
    23:00 +22°C° 0 mm 1 mps 681 mmHg 75%

    29 June, Saturday

    Time Temperature Precipitation Wind Pressure Humidity
    00:00 +22°C° 0 mm 1 mps 681 mmHg 76%
    01:00 +22°C° 0 mm 1 mps 681 mmHg 75%
    02:00 +21°C° 0 mm 1 mps 680 mmHg 75%
    03:00 +21°C° 0 mm 1 mps 680 mmHg 74%
    04:00 +22°C° 0.1 mm 1 mps 680 mmHg 72%
    05:00 +22°C° 0.1 mm 1 mps 680 mmHg 69%
    06:00 +23°C° 0.1 mm 1 mps 680 mmHg 66%
    07:00 +24°C° 0.1 mm 1 mps 680 mmHg 60%
    08:00 +26°C° 0.1 mm 2 mps 680 mmHg 54%
    09:00 +27°C° 0.1 mm 2 mps 680 mmHg 49%
    10:00 +29°C° 0.1 mm 2 mps 681 mmHg 44%
    11:00 +30°C° 0.1 mm 2 mps 681 mmHg 39%
    12:00 +32°C° 0.1 mm 1 mps 681 mmHg 35%
    13:00 +32°C° 0.3 mm 2 mps 681 mmHg 34%
    14:00 +33°C° 0.3 mm 4 mps 680 mmHg 34%
    15:00 +34°C° 0.3 mm 5 mps 680 mmHg 34%
    16:00 +29°C° 2.4 mm 3 mps 680 mmHg 47%
    17:00 +26°C° 2.4 mm 2 mps 680 mmHg 61%
    18:00 +23°C° 2.4 mm 1 mps 680 mmHg 75%
    19:00 +22°C° 0.7 mm 1 mps 680 mmHg 77%
    20:00 +22°C° 0.7 mm 1 mps 681 mmHg 79%
    21:00 +22°C° 0.7 mm 1 mps 682 mmHg 81%
    22:00 +21°C° 0 mm 1 mps 682 mmHg 81%
    23:00 +21°C° 0 mm 1 mps 682 mmHg 80%

    30 June, Sunday

    Time Temperature Precipitation Wind Pressure Humidity
    00:00 +21°C° 0 mm 1 mps 681 mmHg 80%
    01:00 +21°C° 0 mm 1 mps 681 mmHg 79%
    02:00 +20°C° 0 mm 1 mps 681 mmHg 79%
    03:00 +20°C° 0 mm 1 mps 681 mmHg 78%
    04:00 +20°C° 0 mm 1 mps 681 mmHg 75%
    05:00 +20°C° 0 mm 2 mps 681 mmHg 71%
    06:00 +20°C° 0 mm 2 mps 682 mmHg 68%
    07:00 +23°C° 0.1 mm 2 mps 682 mmHg 63%
    08:00 +24°C° 0.1 mm 3 mps 682 mmHg 58%
    09:00 +25°C° 0.1 mm 3 mps 682 mmHg 53%
    10:00 +27°C° 0.3 mm 3 mps 682 mmHg 49%
    11:00 +28°C° 0.3 mm 3 mps 682 mmHg 45%
    12:00 +29°C° 0.3 mm 3 mps 682 mmHg 41%
    13:00 +30°C° 0.4 mm 3 mps 682 mmHg 39%
    14:00 +31°C° 0.4 mm 3 mps 682 mmHg 37%
    15:00 +31°C° 0.4 mm 3 mps 682 mmHg 35%
    16:00 +30°C° 0.2 mm 4 mps 681 mmHg 40%
    17:00 +29°C° 0.2 mm 5 mps 681 mmHg 44%
    18:00 +28°C° 0.2 mm 6 mps 681 mmHg 49%
    19:00 +26°C° 0.4 mm 6 mps 681 mmHg 55%
    20:00 +23°C° 0.4 mm 6 mps 682 mmHg 60%
    21:00 +21°C° 0.4 mm 6 mps 682 mmHg 66%
    22:00 +20°C° 0.2 mm 5 mps 682 mmHg 66%
    23:00 +19°C° 0.2 mm 5 mps 682 mmHg 66%

    1 July, Monday

    Time Temperature Precipitation Wind Pressure Humidity
    00:00 +19°C° 0.2 mm 5 mps 682 mmHg 66%
    01:00 +19°C° 0.1 mm 4 mps 682 mmHg 66%
    02:00 +18°C° 0.1 mm 4 mps 682 mmHg 65%
    03:00 +18°C° 0.1 mm 3 mps 682 mmHg 65%
    04:00 +18°C° 0 mm 3 mps 682 mmHg 63%
    05:00 +18°C° 0 mm 4 mps 682 mmHg 62%
    06:00 +19°C° 0 mm 4 mps 682 mmHg 61%
    07:00 +20°C° 0 mm 4 mps 682 mmHg 56%
    08:00 +21°C° 0 mm 4 mps 682 mmHg 51%
    09:00 +23°C° 0 mm 4 mps 683 mmHg 46%
    10:00 +25°C° 0.1 mm 5 mps 683 mmHg 43%
    11:00 +26°C° 0.1 mm 5 mps 683 mmHg 39%
    12:00 +27°C° 0.1 mm 6 mps 683 mmHg 36%
    13:00 +28°C° 0.1 mm 6 mps 683 mmHg 35%
    14:00 +28°C° 0.1 mm 6 mps 683 mmHg 34%
    15:00 +28°C° 0.1 mm 7 mps 683 mmHg 33%
    16:00 +27°C° 0.1 mm 7 mps 683 mmHg 36%
    17:00 +24°C° 0.1 mm 7 mps 683 mmHg 38%
    18:00 +23°C° 0.1 mm 7 mps 683 mmHg 41%
    19:00 +22°C° 0.1 mm 6 mps 684 mmHg 44%
    20:00 +21°C° 0.1 mm 6 mps 685 mmHg 47%
    21:00 +19°C° 0.1 mm 6 mps 685 mmHg 50%
    22:00 +17°C° 0 mm 5 mps 685 mmHg 51%
    23:00 +17°C° 0 mm 5 mps 686 mmHg 51%
    Show more